Powrót do katalogu

IUE

AktywnyNaukaMEO
NORAD 10637·PAYLOAD·🇺🇸 United States

Wystrzelony Jan 26, 1978 z Cape Canaveral Space Force Station

Loading…

Następne Przeloty (najbliższe 24 godziny)

TLE

ŚwieżeSource: Space-Track

Epoka: Sep 14, 2026, 02:12 UTC

1 10637U 78012A   26257.09186350 -.00000232  00000-0  00000-0 0  9997
2 10637  36.5650 287.0955 1440737 269.5596 284.2726  1.00057639129967

Śledź IUE w czasie rzeczywistym z AllMySat

Download on the App Store